www.pogodaiklimat.ru

Погода и климат >> Архив погоды >> Россия >> Нижегородская область >> Нижний Новгород


АРХИВ ПОГОДЫ в Нижнем Новгороде

Время (UTC), дата Ветер
(напр.,м/с)
 
Видим.   Явления Облачность Т
(С)
Тd
(С)
f
(%)
Тe
(С)
Тes
(С)
Комфортность P
(гПа)
Po
(гПа)
Тmin
(С)
Tmax
(С)
R
(мм)
R24
(мм)
S
(см)
09 17.11 З 2-5
{7}
10 км 10/10 600 м
[Sc]
+0.9 -1.1 86 -3 -3 по сезону 1019.3 999.6
12 17.11 З 2-7
{7}
10 км в посл. час ливневой снег 9/9 600 м
[Cb cap]
+1.0 -2.5 77 -2 -2 по сезону 1020.2 1000.5
15 17.11 ЮЗ 1-4
{7}
10 км {ливн. осадки} 9/9 600 м
[Cb cap]
+0.6 -1.1 88 -1 -1 тепло 1020.0 1000.2 +1.6 0.0
18 17.11 З 2-5
{7}
10 км {ливн. осадки} 9/9 600 м
[Cb cap]
+1.0 -1.9 81 -2 -2 по сезону 1018.9 999.2
21 17.11 ЮЗ 2-6
{11}
10 км 9/8 1000 м
[Sc As trans]
+0.1 -3.8 75 -3 -3 по сезону 1018.1 998.3
00 18.11 ЮЗ 2-5
{8}
10 км 9/8 1000 м
[Sc Ac trans]
-0.2 -2.9 82 -4 -4 по сезону 1017.0 997.2
03 18.11 ЮЗ 2-7
{8}
10 км 9/4 1000 м
[Sc diur, vesp Ac As]
+0.4 -2.4 81 -3 -3 по сезону 1016.0 996.3 -0.2 0.0 <0.5
06 18.11 ЮЗ 1-6
{9}
4000 м слабый ливневой снег 10/10 300 м
[Cb cap]
+0.8 -1.6 84 -1 -1 тепло 1016.4 996.7
09 18.11 ЮЗ 2-5
{7}
10 км {ливн. осадки} 10/10 600 м
[Sc]
+1.3 -0.7 87 -2 -2 по сезону 1017.4 997.7
12 18.11 ЮЗ 2-5
{6}
10 км {ливн. осадки} 10/10 600 м
[Sc]
+1.6 0.0 89 -2 -2 по сезону 1017.6 997.9
15 18.11 ЮЗ 1-4
{7}
10 км 10/10 600 м
[Sc]
+1.7 -0.8 83 0 0 тепло 1018.4 998.7 +1.8 0.0
18 18.11 Ю 1-3
{5}
10 км 10/10 600 м
[Sc]
+1.6 -0.3 87 -0 -0 тепло 1018.3 998.6
21 18.11 ЮЗ 1-3
{5}
10 км 10/10 600 м
[Sc]
+1.4 -0.3 88 -0 -0 тепло 1018.1 998.4
00 19.11 Ю 1-4
{6}
10 км 9/9 1000 м
[Sc]
+1.2 -1.1 85 -1 -1 тепло 1017.6 997.9
03 19.11 Ю 2-4
{6}
10 км 10/10 600 м
[Sc]
+1.3 -0.1 90 -2 -2 тепло 1016.6 997.0 +1.1
06 19.11 Ю 2-5
{5}
4000 м слабый снег {дождь} 10/10 300 м
[Frnb]
+0.7 +0.1 96 -3 -3 по сезону 1016.6 996.9 +0.7
09 19.11 Ю 2-4
{6}
10 км {снег} 10/10 300 м
[Sc]
+1.1 -0.3 90 -2 -2 тепло 1016.4 996.8
12 19.11 ЮВ 2-3
{5}
3900 м слабый снег 10/10 200 м
[Frnb]
+0.6 -0.2 94 -3 -3 по сезону 1015.1 995.5
15 19.11 Ю 2-4
{6}
10 км {снег} 10/10 200 м
[Sc]
+0.9 +0.1 94 -3 -3 по сезону 1014.4 994.8 +1.3 1
18 19.11 ЮВ 2-4
{6}
4000 м слабый снег 10/10 200 м
[Frnb Ns]
+0.8 +0.3 96 -3 -3 по сезону 1013.3 993.7
21 19.11 ЮВ 1-4
{5}
4000 м слабый снег 10/10 200 м
[Frnb Ns]
+0.4 -0.2 96 -2 -2 тепло 1012.3 992.6
00 20.11 ЮВ 2-3
{7}
4000 м слабый дождь {снег} 10/10 200 м
[Frnb Ns]
+0.9 +0.4 96 -3 -3 по сезону 1010.7 991.2
03 20.11 Ю 1-3
{5}
4000 м слабый снег {дождь} 10/10 200 м
[Frnb Ns]
+1.7 +1.4 98 -0 -0 тепло 1010.2 990.7 +0.4 3
06 20.11 ЮЗ 1-2
{5}
10 км в посл. час дождь со снегом 10/10 300 м
[Frnb]
+2.8 +2.3 97 +1 +1 тепло 1010.8 991.4
09 20.11 З 3-7
{7}
10 км 10/10 300 м
[Frnb]
+2.3 +1.0 91 -2 -2 тепло 1012.7 993.1
12 20.11 З 2-4
{7}
10 км 10/10 300 м
[Frnb]
+2.3 +0.1 85 -1 -1 тепло 1013.8 994.2
15 20.11 штиль 0
{4}
10 км 10/10 300 м
[St]
+1.9 0.0 87 +1 +1 тепло 1014.3 994.7 +3.2 0.0
18 20.11 СВ 1-2
{2}
10 км 10/10 300 м
[St]
+1.6 +0.2 90 -0 -0 тепло 1013.9 994.3
21 20.11 В 3-6
{7}
4000 м слабый снег {дождь} 10/10 300 м
[Frnb]
+0.6 +0.1 96 -4 -4 по сезону 1012.4 992.7
00 21.11 В 3-6
{8}
4000 м слабый снег {ливн. осадки} 10/10 200 м
[Frnb]
+0.2 -0.1 98 -5 -5 по сезону 1009.9 990.3
03 21.11 В 3-7
{9}
4000 м слабый дождь {снег} 10/10 100 м
[Frnb]
+1.4 +1.1 98 -3 -3 тепло 1005.6 986.2 +0.1 6 1
06 21.11 ЮЗ 3-6
{9}
4000 м слабый ливневой дождь 10/10 200 м
[Frnb]
+3.6 +3.1 97 -1 -1 тепло 1004.4 985.1
09 21.11 ЮВ 3-7
{8}
2000 м слабая морось {ливн. осадки, дождь} 10/10 200 м
[St]
+3.1 +2.6 97 -1 -1 тепло 1004.2 984.9
12 21.11 ЮВ 2-7
{7}
4000 м слабая морось {ливн. осадки, дождь} 10/10 200 м
[St]
+2.7 +1.9 94 -1 -1 тепло 1004.3 985.0
15 21.11 ЮВ 2-5
{7}
4000 м слабая морось {дождь} 10/10 200 м
[St]
+2.7 +2.4 98 -1 -1 тепло 1004.2 984.9 +3.8 5
18 21.11 ЮВ 2-5
{5}
4000 м слабая морось {дождь} 10/10 200 м
[St]
+3.1 +2.6 97 -0 -0 тепло 1003.7 984.4
21 21.11 ЮВ 2-5
{5}
10 км в посл. час дождь {морось} 10/10 300 м
[St]
+3.3 +2.8 97 0 0 тепло 1003.8 984.5
00 22.11 ЮВ 1-2
{5}
10 км слабый дождь {морось} 10/10 300 м
[Frnb]
+3.3 +2.8 97 +2 +2 тепло 1003.8 984.5
03 22.11 ЮВ 2-4
{5}
10 км {дождь} 10/10 600 м
[Sc]
+3.0 +2.5 97 -0 -0 тепло 1003.4 984.1 +2.6 3
06 22.11 В 2-5
{5}
1200 м дымка {дождь} 10/10 200 м
[St]
+2.3 +2.1 99 -1 -1 тепло 1003.1 983.7 +2.3
09 22.11 ЮВ 1-4
{7}
10 км 10/10 600 м
[Sc]
+1.8 +1.0 94 -0 -0 тепло 1003.2 983.8
12 22.11 В 1-3
{6}
10 км 10/10 600 м
[Sc]
+1.8 +0.7 92 -0 -0 тепло 1002.4 983.0
15 22.11 В 1-2
{4}
10 км 10/10 600 м
[Sc]
+1.4 +0.6 94 -1 -1 тепло 1002.4 983.0 +3.0
18 22.11 ЮВ 1-2
{3}
10 км 10/10 600 м
[Sc]
+1.3 +0.8 96 -1 -1 тепло 1003.2 983.8
21 22.11 штиль 0
{2}
4000 м слабая морось 10/10 200 м
[St]
+1.5 +1.0 96 0 0 тепло 1003.9 984.5
00 23.11 С 1-3
{3}
4000 м слабая морось 10/10 200 м
[St]
+1.5 +1.0 96 -1 -1 тепло 1004.4 985.0
03 23.11 СЗ 2-8
{8}
4000 м слабый снег {морось} 10/10 200 м
[Frnb]
-1.1 -1.5 97 -5 -5 по сезону 1006.3 986.7 -1.1 2 <0.5
06 23.11 СЗ 2-6
{11}
4000 м снег {морось} 10/10 200 м
[Frnb]
-2.3 -3.5 91 -6 -6 по сезону 1008.8 989.0 -2.3
09 23.11 СЗ 3-5
{8}
4400 м слабый снег 10/10 200 м
[Frnb]
-2.5 -3.4 94 -8 -8 по сезону 1010.0 990.2
12 23.11 СЗ 3-7
{9}
10 км {снег} 10/10 200 м
[Frnb]
-3.0 -4.7 88 -8 -8 по сезону 1012.1 992.3
15 23.11 СЗ 2-7
{8}
10 км слабый снег 10/10 200 м
[Frnb]
-3.8 -5.6 87 -8 -8 по сезону 1015.0 994.9 -1.1 0.7
18 23.11 СЗ 2-6
{8}
10 км слабый снег 10/10 200 м
[Frnb]
-4.3 -5.5 91 -9 -9 по сезону 1017.1 997.0
21 23.11 СЗ 2-5
{7}
10 км {снег} 10/10 200 м
[Frnb]
-4.8 -6.5 88 -9 -9 по сезону 1019.7 999.5
00 24.11 СЗ 2-4
{7}
10 км слабый снег 10/10 200 м
[Frnb]
-5.2 -6.9 88 -10 -10 по сезону 1021.0 1000.8
03 24.11 СЗ 2-4
{5}
10 км слабый снег 10/10 200 м
[Frnb]
-5.4 -7.2 87 -10 -10 по сезону 1022.5 1002.2 -5.4 0.2 3
06 24.11 СЗ 1-3
{4}
10 км в посл. час снег 10/10 300 м
[Frnb]
-5.4 -7.5 85 -8 -8 по сезону 1023.6 1003.2

 

Местоположение метеостанции Нижний Новгород (Нижегородская область, Россия): широта 56.27 долгота 44.00 высота над уровнем моря 157 м.

В архиве по умолчанию представлена погода в Нижнем Новгороде за последнюю неделю. Архивные данные за месяц целиком и за предыдущие месяцы, начиная с января 2011 года, Вы можете получить, выбрав интересующий диапазон дат из раскрывающегося списка и нажав кнопку "Ввод!".

Внимание! Время в таблицах - всемирное. Для получения местного времени необходимо прибавить поправку, которая в Нижнем Новгороде равна 3 ч.

Смотрите также архив погоды в соседних городах и на ближайших метеорологических станциях:

Погода в Нижнем Новгороде аэропорт (Нижегородская область, Россия) (15 км)
Погода в Дальнем Константиново (Нижегородская область, Россия) (53 км)
Погода в Волжской ГМО (Нижегородская область, Россия) (57 км)
Погода в Семенове (Нижегородская область, Россия) (60 км)
Погода в Павлово (Нижегородская область, Россия) (70 км)
Погода в Лысково (Нижегородская область, Россия) (70 км)
Погода в Арзамасе (Нижегородская область, Россия) (101 км)
Погода в Воскресенском (Нижегородская область, Россия) (106 км)
Погода в Вязниках (Владимирская область, Россия) (113 км)
Погода в Красных Баках (Нижегородская область, Россия) (119 км)

Пояснения к столбцам:

Ветер - указаны скорость ветра в м/с - средняя за 10 мин, порывы в срок и между сроками (в фигурных скобках) и направление, откуда дует ветер: С - северный, СВ - северо-восточный, В - восточный, ЮВ - юго-восточный, Ю - южный, ЮЗ - юго-западный, З - западный, СЗ - северо-западный.
Видимость - горизонтальная дальность видимости в метрах или километрах. При видимости от 1 до 10 км при отсутствии осадков обычно наблюдается дымка, при ухудшении видимости до 1 км и менее - туман. В сухую погоду видимость может ухудшаться дымом, пылью или мглою.
Явления - указаны атмосферные явления, наблюдавшиеся в срок или в последний час перед сроком; фигурными скобками обозначены явления, наблюдавшиеся между сроками (за 1-3 часа до срока); квадратными скобками обозначены град или гололедные отложения с указанием их диаметра в мм.
Облачность - указаны через наклонную черту общая и нижняя облачность в баллах и высота нижней границы облаков в метрах; квадратными скобками обозначены формы облаков: Ci - перистые, Cs - перисто-слоистые, Cc - перисто-кучевые, Ac - высококучевые, As - высокослоистые, Sc - слоисто-кучевые, Ns - слоисто-дождевые, Cu - кучевые, Cb - кучево-дождевые. Подробнее классификацию облаков см. в Атласе облаков (PDF).
T - Температура воздуха - температура, измеренная на высоте 2 м над землей.
Td - Температура точки росы - температура, при понижении до которой содержащийся в воздухе водяной пар достигнет насыщения.
f - Относительная влажность воздуха - влажноcть воздуха, измеренная на высоте 2 м над землей.
Te - Эффективная температура - температура, которую ощущает одетый по сезону человек в тени. Характеристика душности погоды. При расчете учитывается влияние влажности воздуха и скорости ветра на теплоощущения человека.
Tes - Эффективная температура на солнце - температура, которую ощущает человек, с поправкой на солнечный нагрев. Характеристика знойности погоды. Зависит от высоты солнца над горизонтом, облачности и скорости ветра. Ночью, в пасмурную погоду, а также при ветре 12 м/с и более поправка равна нулю.
P - Атмосферное давление - приведенное к уровню моря атмосферное давление.
Po - Атмосферное давление - измеренное на уровне метеостанции атмосферное давление.
Tmin - Минимальная температура - минимум температуры воздуха на высоте 2 м над землей.
Tmax - Максимальная температура - максимум температуры воздуха на высоте 2 м над землей.
R - Количество осадков - Количество выпавших осадков за период времени, мм. При наведении курсора мыши на число - период времени, за который выпало указанное количество осадков.
R24 - Количество осадков - Количество выпавших осадков за 24 часа, мм.
S - Снежный покров - Высота снежного покрова, см. При наведении курсора мыши на число - состояние снежного покрова и степень покрытия местности в баллах.